Flag Weather past 2 weeks in Marigot, Saint Martin, France

Now
82 °F

Partly sunny.


Feels Like: 88 °F
Forecast: N/A
Wind: 16 mph from East

Location: Juliana Airport - Saint Maarten

Current Time: Nov 24, 2014 at 5:57:12 PM

Latest Report: Nov 24, 2014 at 5:00 PM


Visibility: N/A

Pressure: 29.98 "Hg

Humidity: 74%

Dew point: 73 °F

Location of MarigotLocation

Historic Weather in Marigot — Graph

°F

Marigot temperature yesterday

Maximum temperature yesterday: 84 °F (at 10:00 AM)
Minimum temperature yesterday: 79 °F (at 7:00 AM)
Average temperature yesterday: 82 °F

Past Weeks' High & Low Weather Summary

 TemperatureHumidityPressure
High86 °F (Nov 10, 11:00 AM)94% (Nov 22, 1:00 AM)30.09 "Hg (Nov 22, 1:00 AM)
Low75 °F (Nov 22, 1:00 AM)62% (Nov 12, 11:00 AM)29.86 "Hg (Nov 11, 3:00 PM)
Average82 °F74%29.97 "Hg
* Reported Nov 9 4:00 PM — Nov 24 4:00 PM, Marigot, Weather by CustomWeather, © 2014

Note: Actual official high and low records may vary slightly from our data, if they occured in-between our weather recording intervals... More about our weather records

Advertising

Marigot weather history for previous 24 hours

 ConditionsComfort  
Time TempWeatherWind HumidityBarometerVisibility
4:00 PM
Nov 24
82 °FPassing clouds.20 mph74%29.98 "HgN/A
3:00 PM82 °FScattered showers. Partly sunny.18 mph70%29.98 "HgN/A
2:00 PM84 °FScattered showers. Scattered clouds.18 mph66%30.01 "HgN/A
1:00 PM82 °FSprinkles. Scattered clouds.17 mph74%30.01 "Hg5 mi
12:00 PM84 °FScattered clouds.18 mph70%30.04 "Hg4 mi
11:00 AM84 °FScattered clouds.15 mph70%30.07 "HgN/A
10:00 AM82 °FPassing clouds.17 mph70%30.07 "HgN/A
9:00 AM81 °FPassing clouds.18 mph79%30.07 "HgN/A
8:00 AM81 °FScattered clouds.18 mph79%30.04 "HgN/A
7:00 AM81 °FScattered showers. Scattered clouds.12 mph74%30.01 "HgN/A
6:00 AM79 °FRain showers. Passing clouds.12 mph84%30.01 "Hg4 mi
5:00 AM81 °FPassing clouds.13 mph74%29.98 "HgN/A
4:00 AM81 °FPassing clouds.14 mph74%29.98 "HgN/A
3:00 AM81 °FPassing clouds.15 mph74%29.98 "HgN/A
2:00 AM81 °FPassing clouds.16 mph74%29.98 "HgN/A
1:00 AM81 °FPassing clouds.14 mph74%30.01 "HgN/A
12:00 AM81 °FPassing clouds.15 mph74%30.01 "HgN/A
11:00 PM
Nov 23
81 °FPassing clouds.17 mph74%30.04 "HgN/A
10:00 PM81 °FPassing clouds.13 mph74%30.04 "HgN/A
9:00 PM81 °FPassing clouds.16 mph79%30.01 "HgN/A
8:00 PM81 °FPassing clouds.16 mph70%30.01 "HgN/A
7:00 PM81 °FPassing clouds.17 mph74%30.01 "HgN/A
6:00 PM81 °FPassing clouds.16 mph70%29.98 "HgN/A
5:00 PM81 °FPassing clouds.13 mph74%29.98 "HgN/A
Weather by CustomWeather, © 2014

See weather overviewHow to use our weather pages